Helicity
43 68 22 39 46 42 31 30 38 48 55 64 67 67 68 71 67 56 48 50 47 56 64 54 44 29 33 23 21 44 30 40 45 44 43 28 41 37 40 39 36 16 27
105 78 -7 24 26 29 37 31 36 43 41 45 51 54 56 63 62 55 50 46 45 45 52 45 48 52 46 38 49 55 43 41 43 41 45 39 34 19 28 31 28 15 20
73 53 -3 26 34 35 34 35 42 40 33 32 37 41 45 50 50 42 36 38 30 24 42 32 53 64 64 70 65 63 67 48 35 40 32 20 12 30 33 25 14 15 20
59 82 23 27 34 34 40 46 45 43 34 31 38 36 39 40 39 36 30 27 15 14 61 57 46 60 59 69 74 70 67 48 32 29 26 26 17 17 25 21 19 16 17
70 74 74 32 35 38 34 35 42 45 42 42 45 44 43 32 33 29 27 23 12 31 59 52 45 53 55 71 72 72 62 34 13 22 26 22 23 21 25 24 21 19 21
108 98 82 37 27 36 51 49 37 41 43 45 47 49 59 49 32 27 22 28 40 46 46 38 36 33 46 60 65 62 51 31 32 30 29 21 26 23 25 21 17 18 23
130 110 101 100 37 28 30 47 54 50 43 44 45 44 44 57 44 40 47 37 42 51 43 31 28 25 27 35 46 47 44 44 46 47 30 21 16 29 26 22 19 22 26
106 95 88 97 113 70 36 35 43 56 58 55 45 44 44 55 53 55 57 59 52 54 46 33 23 19 15 21 27 36 39 43 46 45 31 21 11 30 28 26 22 23 27
84 98 93 102 109 103 89 44 52 56 60 56 53 48 49 51 64 63 57 63 63 61 54 45 30 20 12 8 14 35 35 39 40 41 36 20 11 29 31 29 24 24 26
76 74 84 87 98 111 105 86 77 64 61 55 54 49 50 52 56 58 62 61 61 67 68 63 45 31 22 15 17 31 39 34 40 33 34 30 17 31 34 32 30 30 28
71 53 59 84 83 88 113 124 119 80 56 67 74 68 67 83 73 62 67 63 65 72 81 79 63 53 47 29 23 28 47 55 38 32 40 22 17 25 33 34 35 34 34
58 78 72 76 88 91 90 102 136 108 82 63 87 95 104 100 102 88 79 66 61 74 87 85 78 70 68 69 54 42 61 61 54 43 43 18 13 16 27 30 30 30 31
59 75 112 113 113 105 102 99 82 98 103 90 79 89 112 121 125 121 116 105 105 89 115 106 114 116 106 98 83 77 67 64 64 61 44 25 18 9 22 27 27 27 28
40 52 83 104 95 105 109 115 103 86 97 118 104 97 106 130 136 129 131 130 130 140 142 146 150 142 127 109 99 86 85 82 79 66 53 23 19 5 11 25 26 29 25
47 67 72 64 79 87 87 109 128 121 113 100 110 119 113 119 129 147 151 153 158 168 170 166 167 160 138 127 111 98 85 86 87 83 66 45 39 25 -5 13 15 12 11
45 38 32 42 41 42 49 75 88 116 154 155 137 130 122 115 116 135 152 168 167 188 194 191 181 168 164 160 131 122 93 97 102 96 84 65 44 57 38 14 24 23 17
32 12 19 26 32 38 37 43 55 80 104 135 166 162 141 126 112 115 137 159 165 174 186 210 198 191 173 174 146 148 139 110 100 107 108 101 84 62 58 33 30 33 29
-8 7 14 20 29 29 31 38 44 58 85 110 132 170 180 160 137 119 138 151 145 182 197 207 219 231 205 198 171 163 164 159 125 109 121 130 126 112 83 56 52 45 38
7 3 13 26 37 53 55 51 43 39 83 96 128 158 164 173 169 155 132 119 116 136 163 196 202 242 238 222 198 180 187 165 145 141 138 142 155 145 149 106 80 80 69
18 13 22 33 53 65 61 60 64 44 66 104 121 150 177 184 179 180 157 124 119 143 168 175 164 200 238 208 189 173 190 192 179 161 148 146 178 169 165 149 135 104 86
17 20 37 59 99 96 84 46 23 38 74 113 146 147 144 175 196 196 192 168 135 116 130 139 146 156 172 216 248 200 199 188 177 195 169 182 174 176 192 165 163 152 133
20 19 35 57 91 107 79 84 83 62 73 135 182 175 149 162 187 191 203 205 183 147 81 104 152 144 140 156 176 172 141 162 207 163 169 185 169 172 192 149 156 158 156
10 2 2 48 78 82 100 113 126 114 129 143 144 172 159 156 176 176 183 179 192 184 139 76 99 81 119 140 151 192 179 239 254 233 204 227 177 189 182 135 152 142 160
-11 -23 -25 -9 54 60 76 117 98 117 154 156 161 165 167 158 156 154 162 172 180 186 183 127 44 114 101 57 109 208 218 84 386 225 188 200 221 210 199 160 226 131 144
-13 -21 -8 -21 10 44 26 24 30 54 73 79 82 99 124 123 115 123 134 155 153 149 155 162 134 112 99 106 90 83 172 199 165 402 213 264 228 212 200 185 178 193 190
-40 -44 -44 -8 17 36 37 51 62 78 87 78 65 68 74 92 102 114 133 130 120 109 107 101 96 112 118 125 124 124 92 282 192 244 231 280 286 293 285 195 197 239 161
Wind_Speed
33 36 33 20 19 15 15 16 19 20 22 24 26 26 27 28 29 31 31 30 30 32 32 30 30 30 29 28 27 27 27 27 25 26 26 29 30 31 31 33 32 34 36
39 38 20 18 18 19 16 14 16 18 21 22 24 25 25 26 27 27 28 29 30 29 31 30 29 29 30 29 28 28 26 24 23 24 25 27 28 30 30 31 32 33 34
40 41 18 15 16 16 17 17 14 16 19 20 22 23 24 25 25 26 25 25 26 27 28 27 28 27 26 26 27 27 26 24 22 21 23 24 26 28 28 29 31 32 32
40 38 26 14 13 13 14 15 15 16 15 19 20 20 22 23 23 23 22 22 22 23 23 26 25 24 24 23 23 24 24 24 24 23 23 24 25 26 26 28 30 31 32
39 39 37 16 13 12 10 10 11 12 13 15 16 17 20 21 21 21 20 21 21 22 20 24 24 22 22 21 20 20 21 21 22 22 21 21 22 23 25 26 28 29 30
39 41 39 29 18 14 13 10 8 7 8 10 11 12 16 19 20 19 19 20 20 17 19 22 23 21 21 18 17 18 20 20 16 18 19 20 21 22 22 24 25 27 28
40 41 42 39 32 21 17 15 13 11 10 10 9 10 14 17 18 18 18 19 19 17 19 21 22 20 20 17 15 18 20 20 15 14 16 18 19 19 20 21 23 24 25
41 42 43 42 39 34 26 25 22 18 16 16 14 13 16 16 18 19 17 11 13 16 20 22 22 21 20 18 17 18 20 20 15 14 16 18 17 16 17 19 21 22 23
43 45 44 44 42 41 41 34 29 28 25 20 19 21 22 21 19 19 16 13 8 6 10 19 22 21 22 22 21 21 21 22 15 16 17 18 17 16 17 19 20 22 22
47 48 48 47 47 46 45 43 41 37 32 31 30 26 27 28 25 24 19 14 10 7 7 12 19 22 22 24 25 26 25 24 23 19 20 20 16 16 17 19 20 22 22
52 51 51 51 51 51 49 46 46 47 40 36 34 34 35 34 32 33 29 20 18 12 10 11 11 16 23 27 27 28 27 27 27 28 23 19 16 17 18 18 19 20 20
54 54 53 54 55 55 53 53 53 52 50 47 41 39 38 38 38 37 36 32 29 21 18 16 15 15 16 23 30 32 32 30 28 28 24 23 19 20 19 19 20 21 21
55 57 61 61 61 60 59 59 59 58 56 53 52 48 44 44 42 43 42 42 40 37 33 28 27 26 23 23 24 26 31 32 31 28 28 24 19 21 21 21 21 21 20
55 57 60 62 63 65 65 64 62 62 61 61 58 55 54 50 47 47 47 45 44 43 41 38 37 35 32 29 27 27 28 30 33 31 31 32 25 22 22 21 20 20 21
62 63 65 65 66 67 68 68 68 65 62 59 58 55 51 56 57 55 52 51 49 47 45 45 44 43 41 38 35 34 33 34 32 33 31 28 25 23 28 28 26 26 26
68 71 71 73 71 71 72 73 73 73 70 65 62 58 54 51 53 56 59 60 57 52 50 49 49 49 49 46 45 41 41 41 39 38 37 37 32 21 19 20 19 19 22
73 74 77 78 76 79 79 76 76 75 74 73 71 68 63 60 58 57 56 57 60 59 57 54 53 53 55 54 54 52 50 48 48 46 44 42 40 28 26 24 24 22 23
76 81 82 82 84 83 82 81 78 75 75 74 72 71 69 65 65 66 64 61 59 59 61 61 59 58 58 58 60 60 58 56 55 54 52 45 42 41 39 34 32 30 29
78 81 85 84 83 83 82 81 81 79 77 76 76 75 73 70 69 70 72 71 68 65 61 62 67 64 64 63 63 64 64 64 63 60 58 55 50 47 45 42 36 37 36
79 81 83 82 83 82 81 80 79 79 78 76 77 76 75 74 74 74 75 73 70 72 68 65 65 65 67 67 68 68 68 67 65 62 59 58 55 54 53 51 51 47 41
79 81 84 85 83 81 79 80 79 81 80 80 79 78 76 75 74 76 77 78 74 74 77 72 71 71 73 69 72 78 77 70 69 67 65 60 58 55 56 57 57 57 56
80 82 83 81 80 79 77 75 74 78 78 78 78 76 76 76 74 75 77 79 80 81 80 79 73 79 79 72 78 79 87 83 77 68 65 65 61 60 59 60 57 56 53
80 82 81 81 82 79 75 71 71 68 66 69 69 68 70 69 69 73 77 78 79 81 87 85 86 86 88 79 72 75 80 89 78 63 68 63 60 62 67 63 59 65 61
78 77 77 78 79 73 65 63 60 63 69 67 67 66 64 63 66 71 74 74 76 78 86 89 89 90 90 95 80 77 80 80 81 71 65 65 68 67 64 63 66 64 66
73 72 72 73 71 69 63 60 56 59 62 64 66 64 61 61 62 66 70 72 76 78 82 88 91 95 94 98 93 92 87 87 87 69 71 63 66 62 63 59 59 60 51
69 68 69 70 67 66 62 59 58 61 62 64 64 58 54 57 60 61 65 69 73 77 83 86 87 91 96 98 99 98 102 68 84 81 78 72 70 57 59 57 60 57 56
Wind_Direction
306 269 173 75 65 35 18 17 13 14 13 13 14 20 23 30 39 49 56 48 44 50 49 47 53 56 49 42 41 40 42 52 38 35 30 51 47 41 42 39 28 25 31
263 263 86 74 80 85 58 359 3 6 9 11 9 13 19 23 24 32 43 52 57 44 47 48 39 43 46 45 45 39 34 36 42 38 33 45 36 48 46 39 30 24 28
306 297 18 72 76 78 86 76 33 358 358 4 9 10 13 16 20 24 35 41 54 63 49 39 34 33 29 38 46 43 42 41 40 28 29 33 39 51 46 33 22 21 22
319 318 345 36 52 64 79 81 79 67 30 359 356 1 5 7 10 16 21 28 33 32 47 40 27 23 26 22 34 40 42 41 57 50 43 37 39 47 33 26 25 26 26
331 329 325 12 15 16 33 60 73 70 65 55 35 14 4 359 360 0 5 3 6 14 28 21 23 24 12 26 22 24 21 30 54 55 41 34 25 28 28 27 26 26 27
331 334 333 337 349 359 351 357 14 38 41 33 39 44 28 12 357 351 351 347 350 6 8 6 8 7 11 18 21 11 352 352 43 36 30 23 19 21 24 27 30 30 28
328 331 333 326 325 335 335 333 335 335 340 350 3 11 7 9 4 355 346 335 333 342 343 348 353 355 353 359 13 358 351 351 17 14 6 7 11 17 19 21 23 25 25
328 328 330 328 325 322 321 318 318 319 317 318 324 333 336 346 349 346 343 352 341 331 324 329 334 338 338 338 335 340 342 341 5 358 350 351 1 7 8 8 8 11 13
326 325 325 325 325 321 315 312 311 310 309 307 307 309 314 322 329 336 334 332 334 346 343 323 321 322 320 319 316 319 326 331 346 340 342 340 346 347 348 350 353 354 356
323 321 320 319 318 316 316 313 307 305 303 301 301 301 303 306 310 317 322 317 313 305 313 325 316 311 311 309 309 308 311 317 322 326 326 329 342 342 341 342 342 343 346
317 319 318 315 314 313 311 311 309 303 300 298 296 295 296 298 300 303 306 307 301 292 281 297 311 309 303 301 303 305 306 307 309 309 315 322 329 330 331 333 336 340 341
315 317 318 315 311 309 308 307 304 304 300 296 293 292 292 292 293 296 297 297 296 291 282 278 287 297 298 301 299 296 297 300 301 306 308 309 313 318 322 324 327 329 331
312 311 306 305 304 305 304 303 301 299 299 298 293 291 289 289 289 290 291 291 290 289 288 284 285 289 289 292 296 296 295 296 295 298 302 304 303 309 314 316 318 321 326
315 315 313 310 305 299 298 299 300 298 296 294 294 291 289 287 286 286 286 286 286 285 283 282 283 284 284 284 286 289 290 292 292 291 293 297 295 297 304 309 311 315 317
310 311 312 312 310 308 304 301 299 299 298 298 296 294 291 287 285 284 283 282 282 282 279 279 279 280 280 280 281 282 284 285 287 287 288 290 290 284 294 298 302 305 308
309 309 310 309 310 309 306 303 300 298 297 296 295 294 292 289 287 285 282 280 279 277 277 275 276 277 276 277 278 278 280 282 283 282 283 285 287 266 267 284 290 298 302
310 311 310 309 309 306 304 303 302 299 297 294 292 291 291 289 288 285 283 281 279 277 275 273 273 275 276 277 276 277 277 278 279 279 280 281 283 271 262 268 281 286 292
313 311 310 309 307 306 304 302 301 300 298 296 293 291 289 288 287 286 283 280 279 277 275 273 271 272 273 274 276 276 275 275 276 276 277 276 277 279 278 269 275 281 287
317 315 312 311 309 307 306 304 301 298 296 295 294 291 288 286 285 284 283 282 281 279 275 273 272 271 272 273 275 276 275 275 275 275 273 274 274 274 276 277 269 274 280
321 318 316 313 310 308 306 305 303 301 297 294 293 292 289 286 285 283 281 280 281 279 276 274 272 272 272 272 275 276 276 274 274 273 273 273 272 272 274 276 278 279 274
325 322 318 314 313 311 309 306 304 302 300 296 293 292 290 287 284 282 281 278 277 278 277 274 273 272 274 275 276 277 277 275 272 271 272 272 272 271 273 274 276 278 281
325 324 322 319 316 314 312 309 307 305 302 298 296 293 292 288 284 283 281 279 275 276 276 275 273 273 274 274 274 278 278 275 269 267 268 270 271 273 272 273 276 276 277
328 327 326 323 320 317 314 313 311 311 310 308 303 298 295 291 287 285 283 280 278 275 274 275 274 273 274 273 270 274 278 275 270 268 264 267 270 270 272 273 277 276 277
332 332 332 330 326 323 322 319 318 315 314 314 311 307 303 297 292 289 287 282 279 279 277 275 274 274 274 273 275 274 266 283 273 273 276 272 270 268 270 275 279 277 279
337 337 337 332 330 330 326 324 325 325 323 322 318 315 311 304 298 294 290 286 283 282 281 278 276 274 272 273 274 273 278 274 269 274 277 281 272 275 272 273 275 276 280
333 335 337 339 340 339 334 336 335 333 331 329 328 331 330 319 309 302 295 291 288 286 284 282 280 276 273 272 272 273 270 283 271 280 285 281 274 276 272 272 273 277 282